Location: Bartoszyce
(54.2531°N, 20.8133°E)
Time: 01:58:26
(UTC+01:00)

ISS - Visible Passes

Search period start: 23 January 2019 00:00
Search period end: 02 February 2019 00:00
Orbit: 404 x 411 km, 51.6° (Epoch: 23 January)

Date Brightness Start Highest point End Pass type
(mag) Time Alt. Az. Time Alt. Az. Time Alt. Az.
23 Jan -0.9 18:41:00 10° SSW 18:41:04 10° SSW 18:41:04 10° SSW visible
24 Jan -1.5 17:50:44 10° S 17:52:03 13° SSE 17:52:03 13° SSE visible
25 Jan -1.8 18:34:00 10° SW 18:35:40 22° SSW 18:35:40 22° SSW visible
26 Jan -2.1 17:43:07 10° SSW 17:45:41 21° SSE 17:46:30 19° SE visible
26 Jan -0.8 19:18:34 10° WSW 19:19:13 15° WSW 19:19:13 15° WSW visible
27 Jan -1.6 16:52:33 10° S 16:54:31 15° SE 16:56:30 10° ESE visible
27 Jan -2.8 18:27:21 10° SW 18:30:00 37° S 18:30:00 37° S visible
28 Jan -2.6 17:36:11 10° SW 17:39:11 32° SSE 17:40:44 21° ESE visible
28 Jan -1.3 19:12:10 10° WSW 19:13:26 21° WSW 19:13:26 21° WSW visible
29 Jan -2.1 16:45:11 10° SSW 16:47:55 24° SSE 16:50:39 10° E visible
29 Jan -3.4 18:20:50 10° WSW 18:24:03 51° S 18:24:08 51° SSE visible
30 Jan -3.1 17:29:33 10° WSW 17:32:42 44° SSE 17:34:49 18° E visible
30 Jan -1.7 19:05:47 10° W 19:07:31 27° WSW 19:07:31 27° WSW visible
31 Jan -3.4 18:14:23 10° W 18:17:38 54° S 18:18:11 47° SE visible
31 Jan -0.2 19:50:50 10° W 19:50:54 10° W 19:50:54 10° W visible
01 Feb -3.3 17:23:00 10° WSW 17:26:14 53° S 17:28:51 15° E visible
01 Feb -2.1 18:59:23 10° W 19:01:34 32° WSW 19:01:34 32° WSW visible
